Find USA-24

NORAD ID: 18010 Int'l Des: 1987-043 Owner: NRO/NRL Country: US operational
LEO

現在のビュー

3D地球を読み込み中...

USA-24について

説明を読み込み中...

次回通過

Passes for default location (London). Set your location on the main map for personalized predictions.

高度履歴

Loading altitude history...

軌道要素

1 18010U 87043F 26150.12323610 .00012742 00000-0 74471-3 0 9996
2 18010 63.2986 49.5911 0788626 104.2518 264.7359 13.86233857342958
Epoch: May 30, 2026 • Age: 10 hours

現在のステータス

高度 1127.7 km
速度 7.20 km/s
衛星直下点 -32.03°S, 170.14°E
打ち上げ日 May 15, 1987
運用期間 39 years
タイプ other

技術仕様

分類 Payload
質量 200.00 kg
乾燥質量 200.00 kg
総質量 200.00 kg
長さ 0.90 m
直径 0.40 m
スパン 10.00 m
形状 Box + Ant
製造者 MM
バスタイプ NOSS SSU
フェーズステータス In Orbit
所有者/国 NRO/NRL/US

Most Searched